Location: Erp
(42.9417°N, 1.2009°E)
Time: 16:13:53
(UTC+00:00)

Meteor 1-15 Rocket - Pass Details

Date: 12 January 2026
Orbit: 838 x 906 km, 81.2° (Epoch: 18 February)

Event Time Altitude Azimuth Distance (km) Brightness Sun altitude
Rises 18:02:00 0° 349° (N) 3,543 7.4 -14.2°
Reaches altitude 10° 18:04:29 10° 349° (N) 2,597 6.7 -14.6°
Maximum altitude 18:10:26 85° 263° (W) 911 4.4 -15.7°
Drops below altitude 10° 18:16:17 10° 174° (S) 2,558 6.8 -16.7°
Sets 18:18:43 0° 174° (S) 3,486 7.5 -17.2°
